Regional Weather Roundup
Issued by NWS

Home | Current Version | Previous Version | Graphics & Text | Print | Product List | Glossary On
Versions: 1 2 3 4 5 6 7 8 9 10 11 12 13 14 15 16 17 18 19 20 21 22 23 24 25 26 27 28 29 30 31 32 33 34 35 36 37 38 39 40 41 42 43 44 45 46 47 48 49 50
648
ASUS43 KLSX 300310
RWRMO

WEATHER SUMMARY FOR MISSOURI
NATIONAL WEATHER SERVICE SPRINGFIELD MO
1000 PM CDT FRI APR 29 2016

NOTE: "FAIR" INDICATES FEW OR NO CLOUDS BELOW 12,000 FEET WITH NO
       SIGNIFICANT WEATHER AND/OR OBSTRUCTIONS TO VISIBILITY.
       CURRENT SKY AND/OR WEATHER CONDITIONS ARE NOT AVAILABLE FOR
       CHILLICOTHE AND FARMINGTON.

MOZ001>031-035>038-043-044-053-054-300400-
...NORTHERN AND WESTERN MISSOURI...

CITY           SKY/WX    TMP DP  RH WIND       PRES   REMARKS
KANSAS CTY INT CLOUDY    52  48  86 E20G28    29.81F
KANSAS C DTWN  CLOUDY    54  50  86 E16G23    29.80F
LEE`S SUMMIT   CLOUDY    53  51  93 E16G28    29.79F
ST JOSEPH      CLOUDY    51  47  86 E15G24    29.86R
CHILLICOTHE      N/A     51  48  89 E9G23     29.91S
KIRKSVILLE     CLOUDY    50  46  86 E17G23    29.97R

$$
MOZ066>068-077>081-088>096-101>105-300400-
...SOUTHWEST MISSOURI...

CITY           SKY/WX    TMP DP  RH WIND       PRES   REMARKS
SPRINGFIELD    LGT RAIN  60  57  89 E10       29.81F
JOPLIN         RAIN      59  57  93 E10       29.80R FOG

$$
MOZ032>034-039>042-045>050-055>058-069>072-300400-
...CENTRAL MISSOURI...

CITY           SKY/WX    TMP DP  RH WIND       PRES   REMARKS
COLUMBIA       LGT RAIN  58  53  84 E8G23     29.90F
JEFFERSON CITY LGT RAIN  58  54  86 E8        29.91S
ROLLA          HVY RAIN  56  55  97 E12       29.91R FOG
SEDALIA        LGT RAIN  57  55  93 E23       29.86F
WHITEMAN AFB   RAIN      56  56 100 SE15G32   29.79F
OSAGE BEACH    CLOUDY    55  48  76 NE8       29.92R

$$
MOZ051-052-059>065-300400-
...EAST CENTRAL MISSOURI...

CITY           SKY/WX    TMP DP  RH WIND       PRES   REMARKS
ST LOUIS INTL  CLOUDY    63  53  70 E10       29.96S
SPIRIT OF STL  CLOUDY    62  54  74 E8        29.94F
ST CHARLES     CLOUDY    61  55  81 NE10      29.96S

$$
MOZ072>076-082>087-097>100-106>115-300400-
...SOUTH CENTRAL AND SOUTHEAST MISSOURI...

CITY           SKY/WX    TMP DP  RH WIND       PRES   REMARKS
CAPE GIRARDEAU CLOUDY    61  57  87 E7        29.93R
FARMINGTON     CLOUDY    58  56  93 E7        29.95R
POPLAR BLUFF   CLOUDY    61  58  90 NE8       29.89R
WEST PLAINS    CLOUDY    60  57  89 E6        29.89R FOG

$$




USA.gov is the U.S. government's official web portal to all federal, state and local government web resources and services.